TimeMDT,TemperatureF,Dew PointF,Humidity,Sea Level PressureIn,VisibilityMPH,Wind Direction,Wind SpeedMPH,Gust SpeedMPH,PrecipitationIn,Events,Conditions,WindDirDegrees,DateUTC
12:53 AM,45.0,32.0,60,29.89,10.0,SSE,15.0,-,N/A,,Clear,150,2013-04-05 06:53:00
1:53 AM,43.0,30.0,60,29.87,10.0,SSE,11.5,-,N/A,,Clear,160,2013-04-05 07:53:00
2:53 AM,39.0,28.9,67,29.85,10.0,SSE,6.9,-,N/A,,Clear,150,2013-04-05 08:53:00
3:53 AM,37.0,28.9,73,29.83,10.0,SSE,9.2,-,N/A,,Clear,160,2013-04-05 09:53:00
4:53 AM,39.9,30.9,70,29.81,10.0,SSE,6.9,-,N/A,,Clear,160,2013-04-05 10:53:00
5:53 AM,37.0,28.9,73,29.80,10.0,SSE,8.1,-,N/A,,Clear,150,2013-04-05 11:53:00
6:53 AM,37.9,30.0,73,29.81,10.0,SSE,6.9,-,N/A,,Clear,160,2013-04-05 12:53:00
7:53 AM,48.0,34.0,58,29.78,10.0,Calm,Calm,-,N/A,,Clear,0,2013-04-05 13:53:00
8:53 AM,60.1,28.0,30,29.75,10.0,WSW,8.1,-,N/A,,Mostly Cloudy,240,2013-04-05 14:53:00
9:53 AM,64.9,24.1,21,29.71,10.0,West,16.1,-,N/A,,Scattered Clouds,270,2013-04-05 15:53:00
10:53 AM,73.0,26.1,17,29.68,10.0,West,19.6,-,N/A,,Clear,260,2013-04-05 16:53:00
11:53 AM,73.9,25.0,16,29.65,10.0,West,20.7,25.3,N/A,,Mostly Cloudy,260,2013-04-05 17:53:00
12:53 PM,75.9,21.9,13,29.61,10.0,West,15.0,26.5,N/A,,Partly Cloudy,280,2013-04-05 18:53:00
1:53 PM,75.0,19.9,13,29.60,10.0,West,19.6,-,N/A,,Clear,280,2013-04-05 19:53:00
2:53 PM,75.9,21.0,13,29.58,10.0,WSW,18.4,24.2,N/A,,Partly Cloudy,250,2013-04-05 20:53:00
3:53 PM,71.1,23.0,16,29.60,9.0,West,16.1,41.4,N/A,,Mostly Cloudy,270,2013-04-05 21:53:00
4:53 PM,71.1,24.1,17,29.57,10.0,SW,11.5,-,N/A,,Scattered Clouds,230,2013-04-05 22:53:00
5:53 PM,71.1,25.0,18,29.57,10.0,West,10.4,-,N/A,,Clear,260,2013-04-05 23:53:00
6:53 PM,68.0,30.9,25,29.58,10.0,WNW,24.2,33.4,N/A,,Scattered Clouds,290,2013-04-06 00:53:00
7:53 PM,64.9,28.0,25,29.57,10.0,West,21.9,28.8,N/A,,Overcast,260,2013-04-06 01:53:00
8:53 PM,63.0,32.0,31,29.57,10.0,SW,18.4,-,N/A,,Overcast,230,2013-04-06 02:53:00
9:53 PM,60.1,28.9,31,29.59,10.0,WSW,20.7,29.9,N/A,,Mostly Cloudy,250,2013-04-06 03:53:00
10:53 PM,57.9,30.9,36,29.61,10.0,NW,16.1,-,N/A,,Overcast,320,2013-04-06 04:53:00
11:53 PM,48.9,37.0,64,29.67,10.0,NNW,21.9,33.4,N/A,,Mostly Cloudy,330,2013-04-06 05:53:00